Location: DARK SKY Beskydy - Park tmavé oblohy, www.darkskybeskydy.cz
(49.4926°N, 18.5016°E)
Time: 10:34:27
(UTC+02:00)

BlueWalker 3 - Pass Details

Date: 27 June 2024
Orbit: 480 x 491 km, 53.2° (Epoch: 23 July)

Event Time Altitude Azimuth Distance (km) Brightness Sun altitude
Rises 01:17:36 0° 292° (WNW) 2,539 5.7 -16.9°
Reaches altitude 10° 01:19:53 10° 284° (WNW) 1,656 4.6 -16.9°
Enters shadow 01:23:11 35° 222° (SW) 788 2.5 -16.8°
